Location: Addar
(31.1529°N, 8.8484°W)
Time: 18:39:06
(UTC+00:00)

Daily predictions for brighter satellites

Satellite Brightness Start Highest point End
(mag) Time Altitude Azimuth Time Altitude Azimuth Time Altitude Azimuth
CZ-4C R/B 2.8 18:39:23 10° SSE 18:43:08 25° ESE 18:47:17 10° NE
SL-24 R/B 4.4 18:39:28 10° SSE 18:43:51 56° ENE 18:48:40 10° N
Exosat Rocket 3.7 18:39:58 10° SSW 18:45:43 84° WNW 18:50:43 10° NNE
CZ-2C R/B 3.7 18:44:32 10° WSW 18:47:13 17° SW 18:49:48 10° S
Cosmos 1674 3.8 18:44:46 10° NNE 18:47:55 24° E 18:51:01 10° SE
Helios 1A Rocket 3.1 18:44:47 10° SSE 18:48:46 51° ENE 18:52:47 10° N
Cosmos 494 Rocket 4.3 18:43:45 10° N 18:48:47 44° ENE 18:53:46 10° SE
CZ-4 R/B 2.1 18:47:15 10° SE 18:51:03 35° ENE 18:54:50 10° N
Meteor 1-15 Rocket 4.2 18:45:51 10° S 18:51:25 65° E 18:57:07 10° NNE
SeaSat 1 3.1 18:46:42 10° SSE 18:51:33 60° WSW 18:56:26 10° NNW
Cosmos 1536 Rocket 3.8 18:49:48 10° N 18:54:09 50° E 18:58:29 10° SSE
Okean 2 Rocket 4.2 18:50:02 10° SSW 18:54:21 49° W 18:58:40 10° N
SKYMED 2 4.3 18:50:43 10° N 18:54:59 58° WNW 18:59:14 10° SSW
Cosmos 1048 Rocket 4.1 18:50:50 10° NNW 18:56:14 88° ENE 19:01:36 10° SSE
APEX 4.0 18:55:41 10° SSE 18:57:55 20° ESE 19:00:24 10° NE
Cosmos 2034 Rocket 4.0 18:53:11 10° S 18:59:32 84° E 19:05:52 10° N
CZ-4 R/B 4.4 18:56:49 10° SSE 19:00:54 69° ENE 19:05:00 10° N
Aureole 2 Rocket 2.2 19:00:17 10° SSW 19:03:35 88° W 19:06:53 10° NNE
MOS 1 Rocket 3.7 19:03:02 10° NNE 19:06:55 34° E 19:10:52 10° SSE
Cosmos 1766 3.3 19:03:15 10° S 19:07:03 53° E 19:10:55 10° NNE
CZ-2C R/B 4.0 19:03:23 10° NE 19:07:11 18° E 19:10:57 10° SE
Cosmos 1626 3.7 19:05:42 10° NE 19:08:04 16° ENE 19:08:29 16° E
In-Cosmos 22 4.3 19:04:13 10° N 19:09:37 77° W 19:15:08 10° S
CENTAUR R/B 3.3 19:02:05 10° NNW 19:10:34 75° ENE 19:19:25 10° SE
Centaur AC-119 4.1 19:08:34 10° SSW 19:10:53 13° S 19:12:27 10° SSE
Abrixas rocket 1.8 19:08:28 10° NW 19:11:15 62° NE 19:12:59 20° ESE
SL-8 R/B 4.4 19:06:37 10° WSW 19:11:19 53° NW 19:16:01 10° NE
Cosmos 1733 3.2 19:08:50 10° S 19:12:33 55° E 19:16:18 10° NNE
NOSS 3-2 (C) 4.2 19:05:24 10° NNW 19:13:25 81° ENE 19:22:10 10° SSE
DMSP B5D1-3 4.4 19:10:47 10° NNE 19:15:53 73° ESE 19:20:59 10° S
Palapa 6 Rocket 4.3 19:14:44 10° WSW 19:18:13 24° S 19:20:28 15° SE
USA 116 4.0 19:14:03 10° NNE 19:18:22 88° E 19:23:12 10° SSW
RESURS DK-1 2.2 19:14:27 10° SSW 19:18:33 74° ESE 19:22:41 10° NNE
CZ-2D R/B 3.5 19:16:12 10° S 19:20:03 71° W 19:23:56 10° NNW
Milstar 3 Cent rocket 3.1 19:09:38 10° W 19:21:07 73° S 19:25:28 20° E
Cosmos 1634 Rocket 4.1 19:15:25 10° SSE 19:21:20 52° E 19:27:19 10° NNE
Cosmos 1939 Rocket 4.1 19:19:09 10° S 19:23:07 46° W 19:27:08 10° NNW
Meteor 2-5 Rocket 3.9 19:21:53 10° N 19:27:31 51° E 19:33:13 10° SSE
ATLAS 3B R/B 3.6 19:22:36 10° N 19:28:41 31° NE 19:31:52 22° E
X-37B 0.7 19:25:37 10° SW 19:28:41 52° SE 19:29:30 39° E
ATLAS 2AS CENTAUR R/B 4.5 19:24:15 10° WSW 19:31:27 38° NW 19:38:44 10° NNE
SJ-11-01 4.3 19:28:27 10° SSE 19:33:01 54° ENE 19:37:35 10° N
Okean-O 3.4 19:32:03 10° S 19:36:22 53° W 19:40:42 10° NNW
Cosmos 1269 Rocket 3.9 19:31:07 10° N 19:36:25 68° ENE 19:41:40 10° SSE
Cosmos 2195 Rocket 4.5 19:31:52 10° N 19:37:56 58° E 19:43:55 10° SSE
Cosmos 2026 Rocket 4.2 19:33:19 10° N 19:39:31 50° E 19:45:36 10° SSE
Cosmos 2082 Rocket 3.6 19:35:58 10° NNE 19:39:29 19° NE 19:39:29 19° NE
CZ-2C R/B 3.2 19:35:57 10° SSE 19:41:20 89° ENE 19:47:02 10° NNW
COSMOS 2455 2.8 19:35:57 10° SSW 19:41:57 84° ESE 19:48:01 10° NNE
H-2A R/B 1.9 19:37:55 10° SSE 19:42:52 66° ENE 19:47:58 10° N
Cosmos 1455 Rocket 3.3 19:39:07 10° SSE 19:43:14 41° E 19:47:20 10° NNE
Cosmos 1092 Rocket 3.9 19:41:16 10° N 19:47:29 81° E 19:53:45 10° S
Cosmos 2279 Rocket 4.0 19:43:58 10° SSE 19:50:01 54° E 19:56:06 10° NNE
Cosmos 1627 Rocket 4.4 19:44:28 10° N 19:50:51 68° E 19:57:07 10° SSE
HJ-1C 3.8 19:59:22 49° SSW 19:59:56 60° W 20:03:12 10° NNW
Cosmos 2278 Rocket 3.5 19:56:28 10° SW 20:01:43 39° WNW 20:07:01 10° N
Cosmos 2297 4.0 19:58:04 10° S 20:02:36 44° SE 20:02:36 44° SE
DMSP B5D2-2 4.1 19:59:15 10° NNE 20:04:26 55° E 20:09:34 10° S
CSL-04 Rocket 4.1 20:02:11 10° S 20:07:33 62° WSW 20:13:01 10° NNW
Centaur D-1AR AC-40 3.6 20:07:12 10° W 20:16:40 28° SSW 20:18:14 24° S
Cosmos 1833 Rocket 2.5 20:12:14 10° NNW 20:17:53 78° ENE 20:18:22 72° ESE
Lacrosse 4 Rocket 3.2 20:20:00 10° NNW 20:21:36 22° N 20:21:36 22° N
COSMOS 2406 3.5 20:18:58 10° NNW 20:24:35 65° WSW 20:26:32 40° S
Lacrosse 5 rocket 4.1 20:22:04 10° N 20:22:36 12° N 20:22:36 12° N
BREEZE-M R/B 3.6 20:25:13 10° SW 20:28:14 62° SW 20:28:14 62° SW
CZ-4C R/B 3.8 20:27:16 10° WSW 20:31:21 28° NW 20:36:01 10° N
ARGOS 3.9 20:32:25 26° SSW 20:35:14 50° W 20:40:27 10° NNW
Ariane Rocket 4.0 20:46:27 40° NNW 20:46:27 40° NNW 20:49:42 10° NNW
CZ-2C R/B 3.7 20:42:14 10° N 20:47:35 46° WNW 20:52:54 10° SW
ATLAS 3B R/B 3.6 21:12:51 10° NW 21:19:11 45° WSW 21:19:11 45° WSW
Cosmos 2082 Rocket 4.0 21:18:47 10° NNW 21:21:21 26° NW 21:21:21 26° NW
